Theta_e
298 298 298 298 299 299 299 300 300 300 300 301 301 302 309 315 314 309 308 309 309 311 312 309 310 313 311 308 308 308 309 309 308 306 306 306 306 307 308 307 306 308 307 307 310 310 309 311 314 316 316 316 315 314 315 316 316 319 323 321 320 320 317 317 319 317 314 313 311 310 312 313 316 318 316 315 316 316 315 315 317 319 318 317 317 315 318
297 297 298 298 298 299 299 300 300 301 300 301 302 305 311 313 311 310 310 309 310 311 310 309 311 313 311 310 309 307 307 308 307 306 307 307 306 308 309 307 307 307 307 308 311 311 310 311 313 313 314 315 314 313 315 317 317 319 321 321 320 319 318 318 319 318 318 315 314 314 314 315 317 317 317 317 316 315 315 316 317 317 319 319 318 315 320
297 297 298 298 299 299 299 300 300 301 301 302 302 304 308 311 311 311 310 309 310 311 309 309 311 313 313 312 309 308 307 306 307 306 306 305 306 308 308 306 307 307 308 310 310 309 310 311 311 311 311 312 312 313 315 317 319 321 322 320 318 319 321 321 319 319 319 317 317 316 315 316 316 315 315 315 315 315 316 317 316 316 317 319 318 316 322
297 298 298 298 299 299 300 300 300 302 304 304 302 301 307 313 313 311 311 311 311 309 306 307 311 312 312 310 307 307 308 307 305 306 306 305 305 306 306 305 307 307 309 313 312 307 308 309 309 308 308 308 309 312 315 315 317 322 322 319 318 318 319 321 321 321 318 316 315 312 313 316 317 316 315 315 315 314 314 315 316 317 317 319 320 322 327
297 297 298 298 299 299 300 300 301 303 305 305 302 303 307 312 313 311 312 311 311 310 307 308 309 309 309 308 306 306 307 307 306 306 306 306 305 306 305 304 306 307 309 314 312 306 306 308 307 306 305 305 307 309 313 312 313 319 319 316 320 320 316 317 320 320 316 315 314 312 312 315 315 314 314 314 315 316 316 317 319 318 317 318 321 324 329
297 297 298 298 298 299 300 300 301 303 304 303 304 307 307 308 309 308 308 309 310 310 309 309 310 307 307 308 307 308 308 307 308 306 306 307 305 305 306 305 304 305 305 309 309 308 308 307 308 307 304 304 308 310 312 310 308 315 317 315 320 323 317 315 317 317 315 313 313 313 313 312 311 312 313 313 315 318 320 320 317 316 317 318 319 321 328
297 297 298 298 298 299 300 301 301 303 304 302 304 308 307 307 308 306 305 308 309 308 307 309 311 308 307 309 308 309 308 306 306 305 307 309 306 305 307 306 304 304 304 306 307 308 308 307 308 309 305 305 309 313 315 312 306 309 316 317 318 319 317 316 316 317 316 314 314 314 315 313 311 311 312 312 314 317 318 318 317 317 318 317 318 323 325
297 297 298 297 298 299 299 301 301 302 304 303 304 307 307 308 310 309 309 308 307 307 307 310 312 308 307 308 305 307 308 306 305 304 306 309 307 305 306 306 305 304 304 306 306 305 306 306 306 307 306 306 310 311 313 312 307 307 314 318 318 317 316 317 318 318 317 316 314 315 315 314 312 312 312 312 314 315 316 317 317 319 321 320 321 325 321
297 298 298 297 297 298 299 301 301 302 304 303 304 305 305 305 305 307 311 310 305 306 306 307 310 308 306 306 305 306 307 305 305 305 304 306 307 306 305 306 306 305 304 306 306 304 304 304 304 305 305 305 307 307 308 309 308 308 311 316 319 319 317 316 317 318 319 317 316 315 315 313 313 314 313 312 314 315 316 317 316 317 321 323 324 325 319
297 297 297 297 297 298 300 301 301 302 303 302 304 306 305 304 303 304 310 310 303 303 304 305 306 304 304 305 306 306 306 303 304 305 303 304 305 305 305 306 305 306 306 306 304 303 303 302 302 302 302 302 303 303 304 305 306 307 309 313 316 317 317 317 317 318 318 316 316 317 316 315 316 315 311 311 313 314 315 316 315 315 318 321 323 321 315
297 297 297 296 296 297 299 300 300 302 302 301 303 305 304 306 306 307 313 311 302 301 304 306 305 304 303 303 304 305 306 305 304 304 305 305 304 303 305 306 304 305 308 305 301 300 300 300 300 299 299 301 301 300 302 304 304 305 308 312 315 317 318 317 316 318 318 316 315 318 319 319 317 311 308 309 311 312 314 315 313 313 315 317 317 314 310
297 297 296 296 296 297 298 300 301 302 302 302 303 303 303 304 306 310 316 311 302 301 304 303 303 304 303 302 303 305 305 305 304 303 305 307 306 305 305 305 304 305 304 301 300 300 301 301 301 301 301 301 301 301 304 307 306 305 305 308 313 317 317 314 314 316 317 315 316 319 321 318 313 309 307 308 309 309 310 312 312 311 314 314 312 311 309
296 297 296 296 296 297 297 299 301 302 303 303 302 302 304 303 304 310 315 310 303 302 304 302 300 302 303 302 304 305 304 303 302 301 304 306 307 307 306 305 305 303 300 299 301 303 305 307 308 307 306 304 304 306 307 309 308 306 305 307 311 314 315 313 313 315 315 315 316 318 317 313 310 310 308 307 308 308 310 313 312 310 311 312 310 308 307
296 296 296 296 296 297 297 298 301 302 302 303 302 303 304 303 304 309 313 310 303 300 301 301 300 302 303 302 303 304 304 304 303 302 303 304 306 308 307 304 303 300 299 300 303 305 307 309 309 308 307 308 309 310 310 310 309 306 304 305 308 312 314 314 314 313 313 316 316 315 315 313 310 309 308 306 306 307 308 312 312 309 310 310 307 306 305
296 295 296 296 296 297 297 298 301 302 302 302 302 303 304 304 304 304 306 309 305 299 298 300 301 303 303 302 302 303 304 305 304 303 302 301 303 305 304 301 300 299 299 302 305 306 307 308 309 308 308 309 309 309 309 309 310 309 306 306 308 310 312 315 315 312 311 314 316 315 316 315 310 308 306 305 305 304 305 310 312 309 308 308 306 306 305
296 295 296 296 296 297 298 299 300 302 303 302 301 301 302 302 301 298 300 307 307 300 298 298 301 303 302 300 300 300 301 302 302 303 304 303 303 302 300 299 299 299 301 304 307 308 308 309 308 307 308 306 305 308 309 307 309 310 308 307 308 309 309 311 313 312 310 312 314 314 314 313 309 307 305 304 303 302 304 311 313 308 306 307 306 305 305
295 295 296 296 296 297 298 299 301 302 302 302 302 301 299 300 299 297 300 306 305 300 299 299 301 304 301 299 300 299 299 300 299 301 303 303 301 300 299 299 300 301 303 306 308 308 308 308 307 307 307 305 305 309 309 305 307 308 306 306 307 309 309 309 310 311 309 310 312 311 311 310 307 305 304 304 303 303 308 316 314 306 305 307 306 305 306
295 295 295 296 297 297 299 300 300 302 302 302 302 301 299 299 298 297 302 307 305 300 298 297 299 302 300 299 301 299 298 299 299 299 301 300 298 298 298 299 300 301 302 305 308 306 305 305 306 308 308 305 305 307 307 305 306 305 304 305 306 307 307 307 308 308 308 310 311 310 309 308 305 303 303 302 303 307 312 315 309 303 304 306 305 305 306
295 295 295 296 297 298 299 300 300 301 302 301 301 301 299 299 298 297 301 307 306 301 297 295 297 300 298 297 300 298 297 298 299 299 301 301 299 297 296 297 299 300 301 305 306 304 303 303 302 304 306 305 304 305 305 304 305 304 303 305 305 305 306 306 306 306 306 307 309 310 309 306 302 302 303 303 307 312 311 306 303 303 305 305 304 304 303
295 295 295 295 296 298 299 300 300 301 302 301 301 301 299 299 299 298 299 303 304 302 298 296 297 298 297 298 300 300 299 299 299 299 301 301 299 298 300 300 300 300 302 305 304 302 302 303 301 301 304 304 303 303 304 303 303 303 303 305 304 304 305 306 305 304 305 307 308 310 309 306 302 302 304 305 307 309 305 302 302 304 305 304 303 302 300
295 295 295 295 296 298 299 300 300 301 302 302 301 301 300 299 299 299 299 300 303 303 300 297 297 297 298 299 299 300 300 301 301 300 300 300 298 299 302 303 301 300 302 302 302 302 301 302 302 301 302 302 302 302 302 303 303 302 302 304 304 304 304 305 304 304 306 309 309 307 306 304 302 302 304 304 303 303 303 302 303 303 304 303 302 300 299
295 295 295 295 296 297 299 300 301 300 301 302 301 300 301 300 299 300 299 299 301 301 299 298 298 298 298 298 298 298 299 300 300 299 300 301 300 299 301 303 301 300 300 300 301 302 301 301 302 302 302 303 303 302 301 302 304 303 302 303 305 304 303 304 303 303 304 306 305 303 302 302 301 301 301 301 301 301 302 302 302 302 303 302 300 299 298
295 295 295 295 296 297 299 299 301 300 300 302 302 300 301 300 299 300 299 299 300 299 297 298 299 299 299 299 299 298 299 299 299 299 299 301 302 300 300 301 300 299 299 300 301 302 302 301 301 301 301 301 302 302 302 302 303 303 302 303 303 302 301 303 303 303 302 303 302 301 301 301 301 301 300 301 301 301 301 301 301 301 302 300 299 298 298
295 295 295 295 295 297 298 299 300 299 299 301 302 301 301 300 299 299 300 300 302 303 300 299 301 301 300 300 299 299 299 299 298 298 298 299 302 302 301 299 298 300 302 300 298 299 301 300 299 300 301 299 299 301 302 302 302 301 302 302 302 301 301 302 303 302 303 304 302 300 301 301 301 301 301 300 300 301 301 301 300 300 300 300 299 298 298
295 295 296 296 295 296 298 299 299 298 298 300 302 301 301 300 299 301 301 301 303 305 303 301 301 300 299 299 299 299 299 298 297 298 299 298 301 303 301 298 297 299 301 299 297 299 301 300 299 301 301 299 299 300 300 301 301 300 301 302 301 301 302 302 302 302 303 303 301 300 301 301 301 301 301 301 300 300 300 300 300 300 300 300 300 299 299
295 296 296 296 295 296 297 298 298 297 297 300 302 302 302 301 300 301 300 298 301 304 303 302 302 300 298 299 299 298 298 298 297 298 298 298 299 300 298 297 298 297 297 297 300 302 301 299 300 302 301 300 300 300 300 301 300 300 301 301 299 300 301 301 302 302 302 301 301 301 302 302 301 301 301 301 301 301 300 300 300 300 300 300 300 300 300
295 296 296 296 295 296 297 298 297 295 296 298 300 301 302 302 301 301 300 300 302 303 302 301 302 300 298 298 298 298 298 298 298 298 298 297 298 297 296 299 302 302 301 302 301 301 301 301 299 299 299 299 299 298 299 299 300 301 302 300 298 301 302 301 301 302 302 302 302 302 302 303 302 301 300 300 300 301 301 301 300 300 300 300 299 300 300
295 296 296 296 295 295 297 298 297 296 296 297 298 298 300 301 301 302 301 301 304 305 303 302 301 300 299 299 299 298 298 298 298 298 298 297 297 297 296 298 303 305 305 304 301 299 300 299 297 296 297 297 298 298 298 298 299 302 302 299 298 301 302 301 302 302 302 302 301 300 302 302 301 300 299 299 300 301 301 301 300 300 300 300 300 299 299
295 296 296 296 296 296 296 298 298 297 298 299 300 299 298 299 301 302 301 300 301 303 304 303 302 300 300 300 299 298 298 298 299 299 298 297 297 296 295 298 302 302 301 301 300 298 297 296 295 296 296 297 299 299 298 298 300 301 301 298 297 298 298 299 301 302 301 301 300 300 301 302 300 299 299 299 300 301 300 299 300 300 300 300 300 300 299
295 296 296 296 297 297 297 298 299 299 300 301 302 303 302 299 299 301 302 301 300 301 304 304 302 299 298 298 299 298 298 298 298 298 298 297 297 296 295 297 299 300 301 301 299 297 296 295 296 297 296 296 299 299 299 299 300 300 299 298 297 297 297 297 299 301 302 300 299 299 300 301 299 299 299 298 298 299 300 299 299 299 299 299 299 299 298
295 296 296 297 299 299 298 298 298 300 302 302 303 306 306 301 298 300 302 301 300 301 304 303 301 300 300 300 299 298 297 297 297 297 296 297 297 295 295 297 298 299 300 300 297 295 295 295 296 298 298 297 299 299 298 299 301 300 299 298 297 297 297 297 297 298 299 299 298 299 299 299 299 299 299 298 297 297 299 299 298 298 298 298 298 298 297
295 296 297 298 299 299 299 298 298 301 303 300 299 301 301 299 299 301 302 301 300 301 303 304 301 299 301 301 299 297 297 297 297 297 297 298 299 298 297 298 298 298 299 299 298 296 295 295 296 298 297 295 298 300 299 299 300 299 298 297 297 296 297 297 296 297 298 299 300 300 300 299 300 300 299 298 296 296 297 297 296 296 296 296 296 296 296
296 296 297 299 298 299 300 300 300 301 300 297 295 295 296 297 300 302 302 301 299 297 300 303 302 299 299 300 299 297 298 300 300 299 299 298 298 299 300 300 300 299 298 298 297 296 295 295 297 298 296 295 297 300 299 298 298 297 296 296 296 296 297 296 296 297 299 298 299 300 301 301 300 299 298 297 295 295 295 295 294 295 296 297 297 297 295
296 297 298 298 298 300 301 300 299 298 297 296 296 296 296 299 302 301 301 300 298 296 298 301 302 300 299 300 300 298 298 301 301 299 299 297 296 298 301 302 301 300 297 296 295 295 296 297 298 297 296 295 296 298 298 297 297 297 296 296 296 297 297 297 297 298 299 298 297 298 298 299 298 297 297 297 295 294 293 293 295 297 298 299 299 297 295
296 297 298 298 300 302 302 300 299 298 297 297 297 296 297 300 301 301 301 300 300 302 301 300 300 301 300 300 301 298 298 300 299 297 298 298 296 296 300 301 300 298 296 295 296 296 295 296 296 296 295 295 296 298 298 297 297 297 298 297 297 297 298 298 298 298 298 297 298 297 297 297 297 297 297 297 296 295 294 294 294 296 298 299 299 296 294
297 297 298 299 301 302 302 301 300 299 299 298 297 297 299 301 300 300 300 299 300 304 303 299 299 301 300 300 300 298 297 299 298 296 298 299 297 297 299 300 298 296 295 296 297 296 295 295 296 296 295 295 296 296 296 296 298 298 298 298 298 298 299 298 298 298 298 299 301 300 299 298 298 297 297 297 296 295 296 296 296 296 297 299 299 296 295
296 297 298 300 300 300 299 298 298 298 298 298 298 299 300 301 301 300 300 300 300 301 302 302 300 298 297 298 299 298 297 298 297 297 298 298 297 296 298 299 298 297 297 297 296 295 294 295 297 297 296 295 296 295 295 296 298 297 297 298 298 298 298 297 297 298 298 298 300 301 299 298 298 297 297 297 297 297 297 297 297 297 297 298 298 297 295
297 299 300 300 302 302 299 297 296 298 298 298 300 301 299 299 302 302 301 301 300 298 299 301 300 296 296 298 298 298 297 297 297 298 297 296 296 296 296 296 296 296 297 295 294 293 294 295 296 296 295 295 296 296 295 296 297 296 297 297 297 297 297 296 297 299 298 298 298 298 298 297 298 298 297 297 298 298 297 296 295 295 295 295 295 295 294
300 301 300 300 302 303 300 297 297 299 299 298 299 299 298 298 301 301 299 299 300 299 299 301 299 297 298 300 298 296 296 298 299 299 297 295 296 297 296 295 295 295 296 295 294 294 296 295 294 294 296 297 297 297 296 297 297 297 296 296 295 295 294 294 296 297 297 297 298 298 298 297 297 298 298 298 298 297 295 294 294 294 294 294 293 293 293
301 300 300 300 300 300 299 298 298 300 300 299 298 299 299 299 300 299 299 299 299 298 298 299 297 295 297 301 300 297 296 297 298 299 298 296 295 296 296 295 295 296 297 296 294 294 296 296 294 294 296 297 296 296 297 298 298 297 296 295 294 293 293 294 295 295 295 296 296 296 295 295 295 296 298 299 299 297 296 295 295 294 294 294 293 293 294
300 299 299 299 299 298 298 298 298 298 299 300 299 299 299 298 297 297 299 300 299 297 296 298 298 297 298 300 301 299 296 295 296 298 299 296 295 296 297 295 293 295 297 295 293 294 296 296 295 295 296 297 297 297 298 298 298 298 297 295 294 293 293 294 294 294 294 296 296 296 295 295 295 295 296 296 296 296 296 295 295 295 295 295 294 294 294
299 299 299 299 298 297 297 298 297 296 297 300 299 298 297 297 297 297 298 298 298 297 297 298 299 299 297 297 299 299 297 295 296 299 299 296 294 295 297 295 294 296 296 293 293 295 297 296 296 296 296 297 297 298 298 298 299 299 297 295 294 295 294 294 295 295 294 295 295 295 295 295 295 295 295 295 295 295 295 295 295 295 295 295 295 295 295
300 299 299 299 297 296 297 297 296 296 298 300 299 298 297 297 297 297 297 296 296 297 298 297 297 297 296 296 297 298 296 295 296 298 298 295 294 296 297 296 296 296 294 293 294 296 297 297 297 296 296 297 297 298 299 299 299 300 297 295 294 295 295 295 296 296 295 294 294 295 295 295 295 295 294 295 295 295 295 295 295 295 295 295 295 295 295
299 298 298 299 298 297 297 298 296 296 297 299 298 298 299 298 297 297 298 298 298 298 298 298 299 299 298 296 297 297 296 295 296 297 296 294 295 296 298 297 295 293 293 294 295 295 294 295 296 295 296 297 297 298 299 300 300 300 299 296 294 295 295 296 296 296 295 295 295 295 295 295 294 295 295 295 295 296 296 296 296 296 295 295 295 295 295
298 298 300 301 298 296 297 298 297 297 297 298 299 299 299 299 299 299 298 299 299 298 298 299 302 301 298 296 296 297 297 297 297 297 295 295 296 296 295 294 294 293 293 295 295 294 294 296 296 295 296 297 297 298 300 300 298 298 298 297 296 295 295 296 296 296 296 296 296 295 295 295 295 295 295 295 295 296 296 296 296 296 296 295 295 295 295
297 298 301 301 298 295 296 298 299 298 297 298 299 300 300 300 300 298 296 297 299 299 298 299 301 301 297 295 295 296 297 298 297 295 293 295 297 295 292 292 294 295 295 295 295 295 296 296 296 296 298 299 298 299 300 299 296 295 297 299 298 296 295 295 295 295 296 296 296 296 296 296 296 295 296 296 296 296 296 296 296 296 296 295 295 295 295
296 296 298 299 298 296 296 297 298 297 296 297 298 298 298 298 298 296 295 295 297 298 298 298 299 298 297 295 295 296 297 298 297 294 293 295 296 294 292 294 296 296 295 297 297 296 295 296 297 298 299 300 300 300 301 299 297 296 297 298 298 296 295 294 295 295 295 295 295 296 296 296 296 295 295 296 296 296 296 296 296 296 296 296 296 296 295
297 296 296 298 298 297 296 296 296 294 294 295 295 295 295 297 298 297 295 294 296 298 300 299 298 298 297 295 296 296 296 297 296 294 293 294 296 295 295 296 296 294 293 295 296 296 295 296 297 298 299 300 300 300 301 300 299 299 299 298 297 297 296 295 295 296 295 295 295 296 295 295 296 295 295 295 296 296 296 296 296 296 296 296 296 296 296
297 296 296 297 297 296 295 295 296 296 295 295 295 295 296 298 298 297 296 296 297 298 298 299 300 299 296 295 296 297 296 296 296 295 294 295 297 296 296 297 297 295 294 294 295 296 296 296 297 299 300 300 300 300 300 299 298 297 298 297 297 296 296 295 296 296 296 295 296 296 296 296 296 295 295 295 295 296 296 296 295 296 296 296 295 295 295
295 296 297 297 297 296 295 295 297 297 296 296 297 297 298 298 297 296 295 297 298 298 297 298 299 298 296 295 297 298 296 295 295 295 295 296 295 294 294 296 297 296 295 294 295 297 297 296 297 300 301 300 301 302 301 298 296 295 296 296 296 296 296 296 296 297 297 296 296 296 296 296 296 296 296 296 296 296 296 296 295 296 296 296 295 295 296
296 297 297 295 296 297 297 297 299 299 297 297 299 298 298 300 300 297 294 296 300 301 299 298 298 297 297 297 298 297 295 294 295 295 295 294 293 293 295 296 295 295 296 297 297 297 296 296 298 301 301 301 301 301 298 296 295 295 296 296 297 297 297 297 297 297 297 297 297 297 297 297 297 297 297 297 296 296 296 296 296 296 296 296 296 296 296
299 298 296 294 294 296 297 298 299 299 297 298 298 297 298 301 301 296 294 298 303 301 297 295 297 298 298 297 295 294 295 295 296 296 295 293 293 294 296 297 296 296 298 298 296 296 297 298 299 299 300 300 299 297 295 294 295 296 296 297 297 297 297 297 297 297 297 297 297 297 297 297 298 298 297 297 296 296 297 296 296 296 296 296 296 296 296
Wind_Speed
14 14 14 15 17 18 18 18 16 17 16 11 7 6 2 2 2 2 3 5 4 3 2 1 1 1 1 1 1 1 1 1 2 2 2 1 1 1 0 1 1 0 0 1 2 2 1 1 2 1 1 2 1 4 5 1 1 0 3 1 2 1 0 1 2 2 3 2 1 3 2 2 2 2 3 2 2 2 2 2 1 3 2 2 2 3 1
15 14 15 15 17 18 18 18 17 15 12 9 6 4 1 2 2 2 3 0 5 2 2 1 1 0 2 2 1 1 1 1 2 2 2 2 1 1 1 0 1 1 1 0 1 2 2 2 2 1 1 1 1 4 7 4 1 1 0 2 2 1 0 1 1 2 3 1 2 3 2 1 1 2 3 4 4 3 1 2 1 2 3 3 3 4 0
14 14 15 15 17 19 19 18 17 16 13 7 4 1 0 1 1 1 0 2 3 1 1 0 1 1 2 2 2 2 0 0 1 1 1 2 0 0 1 1 1 2 2 0 1 3 2 2 2 1 1 2 1 5 7 5 2 1 2 2 3 2 1 1 1 3 4 2 1 1 0 2 2 1 4 7 6 3 2 2 3 4 3 3 4 3 1
13 14 15 16 18 19 19 19 18 18 13 5 8 4 1 1 1 0 1 2 2 1 0 1 1 0 0 1 2 2 1 1 1 0 1 2 2 1 1 1 1 2 3 2 2 3 2 2 2 2 3 3 2 3 3 3 4 3 4 4 2 2 2 1 2 2 3 1 1 2 2 3 3 4 7 8 7 4 2 2 2 2 4 4 4 2 3
14 14 15 17 18 19 19 19 19 18 7 8 9 1 1 1 1 1 1 0 1 0 0 1 1 0 1 0 1 2 2 2 1 1 1 2 2 1 1 3 2 2 3 1 1 3 2 2 2 2 3 2 3 4 2 2 8 6 3 3 1 3 2 1 3 3 1 1 1 2 2 2 3 6 7 9 10 6 2 2 3 1 3 3 2 2 5
14 14 15 17 18 19 19 19 19 14 6 11 5 1 1 1 1 1 0 0 1 0 0 1 2 1 1 0 1 1 2 2 1 1 1 2 2 1 1 4 4 2 1 0 1 2 2 2 2 2 3 3 3 4 1 1 8 8 2 2 1 2 2 3 3 3 3 3 1 1 3 4 5 8 9 9 11 9 5 3 6 5 2 2 1 2 4
14 14 15 16 17 19 18 18 18 9 6 6 1 1 0 1 1 0 2 1 1 0 0 2 3 3 2 1 1 1 2 3 1 1 1 2 3 2 1 3 5 3 0 1 1 2 1 1 2 1 3 3 2 3 2 1 7 8 4 3 2 1 2 3 3 4 4 3 3 4 5 4 5 9 10 9 8 9 9 7 7 6 3 1 2 4 4
13 14 15 15 17 19 18 17 17 9 2 2 2 0 0 0 1 1 1 2 1 1 1 1 2 2 2 1 1 0 1 2 1 1 0 1 2 2 1 2 3 2 1 1 2 1 1 1 1 1 2 2 1 1 1 2 6 8 5 3 3 1 2 2 2 3 3 2 3 4 4 5 5 9 12 11 9 8 8 7 6 6 2 2 6 6 5
13 13 14 15 16 18 18 17 16 10 0 2 1 1 1 1 1 1 2 2 2 1 1 1 1 1 1 0 1 0 1 1 1 1 0 1 0 1 2 1 1 1 1 1 2 2 2 3 4 4 3 3 1 1 1 1 4 6 4 2 4 2 2 2 1 4 3 2 2 2 5 6 5 9 12 12 9 6 6 5 5 5 3 3 6 4 3
13 14 14 14 16 17 18 16 16 12 3 2 1 0 1 1 1 1 3 2 2 1 1 1 1 1 0 0 0 0 0 2 1 1 1 1 1 0 0 1 1 1 1 1 1 2 3 6 8 6 6 6 3 2 2 1 1 2 2 1 1 1 2 2 2 4 3 2 2 1 2 4 2 5 8 7 6 6 5 4 6 8 6 1 2 2 5
14 14 12 13 15 17 17 16 15 13 6 0 1 0 1 1 1 1 2 2 1 0 1 0 1 1 1 0 0 0 1 2 1 1 1 1 0 1 1 2 0 1 1 0 1 2 5 6 5 3 4 5 4 3 2 1 2 4 3 1 0 1 2 1 1 3 1 2 2 1 2 2 1 2 5 5 4 5 5 4 8 10 5 1 2 4 8
13 13 12 12 15 16 16 16 15 13 8 2 1 1 0 0 1 1 2 3 1 0 1 1 1 1 1 1 1 1 1 2 1 0 1 1 1 0 2 2 0 0 1 2 3 3 2 1 0 1 1 1 2 3 1 3 3 2 4 4 2 2 2 1 1 1 1 2 1 3 3 1 1 2 5 5 3 4 3 1 7 12 6 4 8 8 8
13 13 11 12 14 15 16 16 14 12 9 4 1 0 1 1 1 1 2 3 1 0 1 1 0 0 1 1 0 1 2 2 2 2 3 2 2 2 1 2 2 1 2 4 4 1 2 1 0 1 2 3 1 2 1 4 6 5 2 2 3 1 2 2 1 1 1 2 1 2 3 1 1 1 5 7 3 5 4 1 6 12 7 3 9 9 8
13 11 10 11 13 14 15 16 14 12 9 5 3 2 2 3 1 1 2 3 2 0 0 1 1 0 1 1 1 1 1 2 2 1 2 1 2 3 2 2 2 3 2 1 1 1 1 0 1 1 1 2 0 2 1 3 3 6 7 3 0 1 1 1 1 1 0 2 3 3 4 2 3 2 5 5 4 5 5 2 4 10 6 4 8 10 11
13 11 10 11 12 13 15 16 14 11 8 5 4 3 1 2 2 1 2 3 3 1 0 0 1 1 1 0 0 1 1 2 1 1 1 1 3 4 2 2 5 4 0 1 0 1 1 1 2 1 1 1 1 1 1 1 1 4 6 4 2 3 1 3 1 1 0 2 4 3 2 2 3 5 5 4 3 5 5 2 2 8 7 5 8 10 11
12 11 10 10 11 13 14 15 14 12 8 5 4 5 4 1 2 3 4 3 3 2 0 1 2 2 2 1 1 1 1 1 1 2 1 1 2 3 3 3 5 2 1 1 1 1 1 1 2 1 0 0 1 2 1 2 2 3 5 6 6 6 1 2 1 2 1 2 3 3 2 2 4 8 7 6 4 4 3 2 1 6 7 4 8 9 9
13 11 9 9 10 12 13 14 13 12 10 7 5 6 6 3 2 3 3 3 3 2 0 2 2 2 2 1 0 0 1 0 0 0 1 1 2 4 4 4 3 0 1 1 1 1 2 2 2 1 1 1 1 2 1 3 3 4 6 7 7 6 3 1 3 3 2 3 4 3 2 2 5 9 10 7 3 2 3 1 2 5 5 3 7 7 6
13 11 9 8 10 11 12 13 13 12 9 7 6 8 9 6 3 4 4 3 3 2 1 3 2 2 1 1 1 1 1 1 1 0 1 1 1 3 5 4 3 1 1 0 1 2 2 2 1 1 1 1 1 1 1 2 2 3 5 4 2 3 3 2 4 4 3 4 5 3 2 2 5 10 10 6 1 3 0 2 3 4 2 4 5 4 4
13 11 9 7 8 10 11 12 13 12 9 7 6 8 11 10 5 5 5 3 2 2 1 3 1 1 1 2 2 1 1 1 0 0 1 1 1 1 2 1 1 1 1 1 2 1 2 1 0 1 2 1 1 1 1 2 2 2 4 3 2 3 2 2 3 2 2 3 3 3 2 2 6 12 10 3 1 1 2 3 2 2 3 6 5 5 6
13 12 9 7 7 9 10 11 12 11 9 7 7 8 12 15 10 8 10 7 3 3 1 1 1 3 3 2 3 2 1 1 0 1 1 1 1 1 0 0 0 1 1 1 2 1 1 2 1 0 2 2 1 2 2 2 1 1 2 2 3 3 1 2 3 2 1 2 3 3 2 2 10 13 7 2 3 2 1 2 2 3 5 7 7 7 7
13 12 9 7 7 7 9 10 11 10 8 6 7 8 11 15 14 14 16 13 6 3 1 0 1 3 3 2 3 3 2 1 1 0 0 1 1 1 1 0 1 1 1 1 1 1 1 1 1 1 1 1 1 1 1 2 3 2 2 1 3 4 2 2 2 2 2 3 4 3 1 4 8 8 4 4 5 2 1 2 4 5 6 7 7 7 7
13 12 10 7 6 6 7 9 10 9 8 5 6 7 9 11 12 13 16 14 8 5 4 3 3 5 5 4 3 2 1 1 2 2 1 1 1 1 1 1 0 0 0 0 1 2 1 1 2 2 2 2 2 1 1 1 2 3 4 2 3 5 3 2 3 4 4 4 3 1 1 3 5 4 3 4 5 3 3 5 6 6 6 6 7 8 9
13 13 10 7 5 5 6 8 9 9 7 5 5 6 8 10 12 15 17 14 9 7 6 5 6 6 7 8 7 7 7 5 4 4 3 1 1 1 0 0 0 1 0 0 0 1 2 2 1 2 2 2 2 2 4 4 2 3 4 3 4 4 1 1 3 4 4 6 5 3 4 5 5 5 5 5 6 6 5 7 8 7 7 7 7 8 9
13 13 11 6 4 4 5 7 9 8 7 5 6 8 9 10 11 12 11 7 4 4 6 6 4 2 2 5 8 10 11 10 7 3 2 2 1 1 0 0 0 1 0 0 0 1 2 2 1 2 3 2 1 2 4 4 3 2 2 3 3 3 2 2 3 2 2 4 6 5 5 6 6 6 7 7 7 6 6 7 8 8 9 9 9 9 9
13 13 11 7 3 3 4 7 8 8 6 5 6 7 8 9 7 6 6 5 3 3 3 3 2 2 3 5 8 10 11 9 7 5 3 2 1 2 3 2 1 1 1 1 0 0 3 2 1 2 4 1 1 2 2 2 2 1 2 3 2 2 2 2 3 3 3 4 4 4 6 7 7 6 6 6 7 8 7 8 9 10 10 11 11 11 10
13 14 12 7 2 3 4 6 8 9 9 7 6 6 8 8 7 6 8 8 5 3 3 2 1 5 8 9 9 9 8 9 11 13 11 8 4 5 7 6 2 3 3 2 1 1 2 2 2 3 4 1 1 2 2 2 1 1 3 4 2 2 1 1 2 4 5 4 3 4 6 8 7 7 6 5 5 7 8 9 10 11 11 10 11 10 10
13 14 12 7 2 4 4 5 8 11 12 11 9 8 9 9 7 6 6 5 3 2 2 2 1 4 6 8 10 12 12 14 16 18 18 16 12 9 8 5 2 2 2 2 2 2 2 3 3 3 3 1 1 2 2 1 1 2 5 4 2 1 2 1 2 4 5 3 3 3 4 5 5 4 5 4 4 7 9 8 9 9 9 9 9 9 8
13 14 12 6 2 5 4 5 8 10 12 13 13 12 12 10 8 6 3 3 3 2 2 2 1 2 3 6 12 14 14 16 19 20 21 21 21 18 13 5 2 2 2 2 2 2 3 4 3 2 1 1 1 2 1 0 2 4 5 4 3 2 2 0 2 5 4 3 3 2 2 5 4 2 3 2 2 5 7 7 7 7 7 8 9 9 8
12 12 10 4 3 5 4 4 6 7 7 8 8 9 10 10 10 7 5 6 8 6 2 1 1 1 1 4 10 13 14 15 19 21 22 22 22 20 14 7 3 2 2 2 3 2 3 2 1 1 1 0 1 2 1 1 3 5 4 4 3 2 1 2 1 4 5 3 2 2 3 5 4 2 2 2 2 4 6 5 5 6 6 7 7 7 7
10 9 6 3 4 5 4 4 5 5 4 3 3 3 5 6 7 7 6 8 9 6 2 2 2 1 1 2 6 13 15 14 16 19 19 18 15 13 10 6 3 2 2 2 3 2 2 1 1 1 1 1 0 2 1 2 4 4 3 4 4 3 2 2 2 1 3 3 2 1 4 5 4 2 3 3 2 2 4 4 4 5 6 7 6 5 5
8 6 4 4 5 5 4 4 5 5 2 2 3 1 1 1 3 5 5 7 7 5 3 2 1 1 1 1 3 10 13 11 11 12 11 9 8 9 9 7 4 3 3 2 1 1 1 1 2 2 1 3 2 3 1 2 5 4 4 4 4 4 4 3 2 2 3 4 4 4 5 4 2 2 3 3 2 1 2 3 3 5 6 7 6 5 6
6 4 3 4 5 5 4 4 5 5 2 3 5 4 3 2 2 4 5 6 6 5 3 2 1 1 1 1 3 9 10 7 6 6 6 6 6 7 9 7 3 3 4 3 1 2 1 1 1 2 2 3 3 2 2 3 5 3 3 4 3 3 3 3 3 3 3 3 4 6 5 1 1 1 3 3 3 3 4 5 5 6 6 6 5 5 6
4 2 3 5 5 6 6 6 6 5 4 7 9 8 6 5 4 5 6 6 6 5 3 2 2 1 1 1 2 9 9 4 2 3 4 5 5 3 4 4 1 3 5 4 1 1 1 0 1 2 2 2 2 2 3 4 3 1 3 3 2 2 3 3 3 3 3 3 2 2 2 1 0 2 4 5 4 4 5 6 6 6 5 4 4 4 4
2 2 4 5 6 6 8 9 9 8 6 6 7 7 7 6 5 5 5 6 6 5 4 2 2 1 2 0 0 6 8 3 1 2 2 4 4 2 1 2 2 3 4 3 1 1 1 1 2 2 1 2 2 2 3 3 2 2 2 2 2 2 2 3 3 2 3 3 2 2 2 2 4 5 5 4 4 4 4 4 3 3 2 1 2 2 2
1 4 5 6 7 8 9 9 8 6 5 4 4 5 6 7 7 6 5 4 3 2 2 2 2 1 1 1 1 4 6 3 1 2 1 2 4 2 1 1 3 2 2 2 1 2 2 2 1 1 1 2 2 2 2 2 2 2 2 2 2 2 3 2 2 2 2 2 2 3 3 4 5 4 3 3 3 3 3 3 2 1 0 1 1 1 1
4 5 6 7 8 9 8 6 4 3 3 3 4 5 6 8 9 9 9 8 6 3 1 0 1 1 1 1 1 3 4 2 1 1 1 1 2 2 1 2 3 2 1 1 2 2 2 1 0 1 2 1 2 2 1 1 1 2 2 1 0 0 1 1 1 1 2 3 3 3 3 4 4 2 1 2 1 1 1 1 0 1 2 3 2 2 2
6 6 7 8 7 6 4 3 3 3 3 4 5 5 6 5 5 6 7 7 8 6 2 2 2 1 0 1 0 2 3 1 0 1 2 1 1 2 2 2 2 1 1 2 3 2 2 1 1 2 2 1 1 2 2 2 1 2 2 1 1 1 1 1 1 2 3 4 4 3 2 2 2 1 1 2 2 1 2 2 2 2 3 3 2 2 4
7 7 6 6 4 2 1 1 2 4 5 5 4 3 4 3 2 3 3 3 4 5 3 2 2 1 0 1 1 2 2 1 0 1 1 1 0 1 1 1 1 0 1 2 1 1 1 2 2 2 2 1 1 1 2 2 2 2 2 2 2 1 1 2 3 3 3 3 2 2 1 1 1 0 1 1 1 2 2 3 3 4 5 4 2 2 4
8 6 4 3 2 1 2 2 4 5 5 3 2 2 2 3 2 1 1 2 2 2 2 1 1 0 0 1 2 2 2 1 1 1 1 1 1 1 1 1 1 1 1 1 0 0 1 2 2 2 2 1 1 1 1 2 1 1 1 2 2 2 0 2 2 1 2 2 0 1 2 1 1 1 1 1 1 2 2 3 4 5 5 5 4 3 4
7 4 2 2 1 2 4 5 5 5 3 2 3 2 1 2 1 1 0 1 1 1 1 1 1 0 1 1 2 1 2 2 1 1 1 1 1 1 1 1 1 1 1 1 1 1 1 1 1 1 2 2 1 1 1 1 1 1 1 2 2 2 2 3 2 1 1 1 2 3 4 4 3 3 2 2 1 1 1 2 3 4 4 4 4 4 5
5 3 2 3 4 5 6 6 4 3 2 2 2 2 1 1 1 0 1 2 1 0 0 1 1 1 1 1 1 1 2 2 1 1 2 1 1 1 1 1 1 1 1 0 1 1 2 2 1 1 2 2 1 0 1 1 1 2 3 4 5 5 4 3 0 2 2 2 3 3 4 5 5 5 4 3 2 2 2 2 2 3 3 4 4 5 5
6 6 6 7 7 6 5 4 3 3 2 1 2 2 1 0 0 1 1 1 0 0 0 1 1 1 1 1 0 1 1 1 0 1 2 1 0 1 1 1 1 1 1 0 0 1 2 1 1 1 1 1 1 1 0 1 1 1 2 4 5 6 5 4 3 3 2 2 2 3 3 4 4 4 4 4 3 2 2 3 3 3 4 5 5 5 5
10 9 8 6 4 3 3 2 2 1 1 2 2 1 1 1 1 1 0 0 0 0 1 0 0 1 1 1 1 1 1 1 1 1 1 1 1 1 2 2 1 1 1 0 1 2 2 1 2 2 1 1 1 1 1 0 0 1 2 3 4 4 3 3 3 4 4 3 3 3 3 2 3 3 3 3 3 3 4 4 5 5 6 6 6 6 6
9 6 4 2 2 2 2 1 0 1 1 1 1 2 1 1 0 1 1 1 1 1 1 1 1 1 1 1 1 1 1 1 1 1 1 1 1 1 2 1 1 1 1 1 1 1 0 1 2 1 0 0 1 2 2 1 1 1 1 3 3 3 2 3 4 4 5 5 5 5 4 2 2 3 3 4 4 5 5 6 6 6 6 7 7 7 6
4 2 3 3 2 2 1 0 1 0 1 1 1 2 2 2 2 1 1 1 1 2 2 1 1 2 2 1 0 1 0 0 1 1 1 1 1 2 1 1 1 1 1 1 1 1 1 1 1 1 1 2 3 2 1 1 0 0 1 2 3 2 2 3 3 4 5 6 7 6 5 5 4 4 5 5 5 6 6 7 6 6 6 6 7 7 7
2 1 2 3 1 1 1 1 0 0 1 1 1 2 2 2 2 2 1 0 1 2 2 1 1 2 2 0 0 1 1 1 1 1 0 1 2 1 0 1 1 2 2 1 0 1 1 1 1 1 2 2 2 1 1 1 1 1 1 2 2 1 3 4 4 4 5 5 6 6 7 8 8 8 9 9 9 9 9 9 9 8 7 6 7 7 7
2 1 2 3 1 0 1 1 1 1 1 1 1 1 1 1 2 1 1 0 1 3 3 1 1 2 2 1 1 1 1 1 1 1 0 1 2 1 0 1 1 1 2 1 1 2 1 1 1 1 1 1 1 1 1 1 1 2 2 2 2 3 4 5 5 4 4 4 5 6 8 8 9 10 11 12 12 12 11 10 9 9 10 9 7 6 6
2 1 1 2 1 1 1 1 1 1 1 1 0 0 0 1 2 2 1 0 1 2 2 2 2 2 1 1 1 1 1 1 1 1 0 1 1 1 1 1 1 1 2 2 2 1 1 2 1 1 1 1 1 1 0 0 1 1 2 1 1 2 4 4 5 5 5 5 6 7 8 9 9 9 9 10 11 12 10 8 6 7 9 10 10 9 8
3 2 1 1 1 1 0 0 1 1 2 1 0 1 1 2 3 2 1 0 1 1 1 1 2 2 1 1 1 1 1 1 1 1 1 1 1 1 1 1 0 1 2 2 1 1 1 1 1 1 1 1 1 1 0 0 1 0 1 1 2 4 5 5 5 6 7 7 7 7 8 9 9 9 8 8 9 10 10 8 6 6 6 8 10 10 9
3 2 1 1 1 1 1 1 2 2 1 1 1 1 1 3 3 1 0 0 1 1 1 2 2 2 1 1 1 1 1 0 1 1 1 1 1 1 1 1 2 2 2 2 1 1 1 1 1 1 1 1 1 1 0 0 0 2 3 4 6 7 7 7 6 7 7 6 6 7 7 7 7 7 7 7 7 9 9 8 6 5 5 6 7 7 7
2 2 1 1 1 1 2 2 2 3 2 2 2 1 1 2 2 1 1 1 2 2 1 1 1 1 2 2 1 1 1 1 1 1 1 1 1 1 1 1 2 2 2 1 1 1 1 1 1 1 1 1 1 1 1 1 3 4 5 6 6 7 7 6 6 6 6 6 6 6 5 5 5 6 7 7 8 8 8 6 5 4 3 4 6 7 7
1 1 1 0 0 1 1 1 2 2 1 2 1 1 1 1 1 1 2 2 2 1 1 1 1 2 2 1 1 1 1 1 1 1 0 1 1 1 1 1 2 2 2 1 1 1 1 1 1 1 1 1 1 1 1 2 3 4 4 4 4 5 5 5 5 6 6 6 5 5 5 6 5 6 7 8 7 6 6 5 5 4 3 4 5 6 7
Wind_Direction
334 334 336 338 340 342 342 343 344 345 350 354 349 344 340 137 56 18 133 114 22 8 113 21 346 170 336 325 261 290 321 286 309 358 15 6 350 7 19 275 301 106 258 326 353 359 352 27 40 7 54 82 355 329 353 4 259 59 103 97 323 331 16 294 281 284 291 317 57 128 148 137 123 41 22 23 304 287 258 243 166 162 182 159 205 244 223
336 337 338 340 342 343 343 344 344 343 342 333 321 332 79 136 53 77 147 311 342 14 128 29 3 285 338 3 359 321 244 274 338 359 5 9 359 349 19 339 334 352 345 356 4 352 355 45 49 33 25 73 73 8 7 6 2 351 189 167 169 188 302 303 314 308 286 244 153 168 164 79 62 20 10 11 348 322 280 122 130 216 203 176 224 240 147
339 340 341 342 345 345 346 345 344 339 327 296 252 245 91 111 82 65 326 325 347 86 143 101 137 313 351 23 3 351 245 300 351 351 359 4 286 252 8 337 318 348 340 322 36 19 16 20 24 38 2 327 351 34 10 343 328 7 12 83 142 158 144 159 197 259 253 242 226 210 269 340 331 347 1 12 11 333 291 149 183 220 187 163 216 229 86
340 340 342 345 347 348 348 348 347 339 322 242 190 200 257 118 104 32 343 3 38 81 91 95 139 172 71 68 4 5 8 335 333 269 22 7 6 35 10 329 334 18 1 355 33 26 7 6 35 26 353 320 328 8 351 323 351 33 56 58 96 127 90 141 159 195 248 270 354 321 321 309 313 347 357 2 2 331 279 212 203 188 155 182 222 179 139
341 343 345 348 350 351 352 354 352 346 344 162 163 181 347 129 126 133 153 42 35 49 62 81 100 156 164 137 16 5 346 337 346 23 47 20 13 37 32 16 29 24 4 4 26 10 1 28 47 7 337 303 299 313 264 334 359 7 48 34 42 129 118 148 122 101 111 118 283 299 341 11 6 7 2 359 3 358 288 258 322 356 176 204 246 156 166
342 346 348 350 354 354 356 360 357 2 89 136 144 346 19 123 142 133 305 213 129 103 197 129 110 88 90 141 17 18 13 13 8 356 12 22 15 26 53 31 30 11 347 51 10 3 28 33 10 330 346 337 318 329 285 15 8 7 10 6 32 135 144 162 139 117 132 141 139 113 102 89 43 28 22 14 15 23 31 6 351 341 281 281 346 170 167
344 348 349 353 358 358 1 3 359 7 121 135 34 340 91 48 123 59 351 66 141 114 49 119 109 74 38 27 33 56 42 26 10 296 352 18 12 15 47 11 6 360 318 160 29 9 86 38 340 316 9 353 323 350 346 2 16 14 7 9 21 103 134 153 155 142 138 135 126 116 121 118 50 31 30 28 31 39 41 27 6 358 343 294 163 139 85
347 350 351 356 1 1 3 5 360 359 166 201 333 91 149 50 144 137 54 81 78 56 53 90 112 64 6 41 50 82 112 23 2 260 355 44 3 6 41 355 344 355 3 85 99 97 129 115 302 281 6 345 301 27 332 322 357 360 2 3 344 316 152 124 134 160 151 127 130 123 123 125 74 36 28 27 33 39 29 17 11 5 7 141 144 124 66
350 352 353 359 4 4 5 4 2 3 50 204 307 75 95 62 90 140 120 95 359 11 57 41 116 74 359 76 71 189 177 356 325 244 285 90 139 359 18 338 304 57 9 8 144 151 169 223 256 249 245 269 290 22 10 356 349 349 356 352 340 346 138 125 165 202 187 103 104 126 131 137 95 38 23 15 19 21 0 0 14 355 345 126 138 131 96
351 353 354 1 7 7 6 6 5 9 30 175 213 74 119 98 59 57 106 94 351 356 81 40 108 119 32 92 280 290 320 321 296 194 329 317 194 269 299 216 188 30 323 299 173 214 244 258 266 258 247 255 266 293 312 328 290 307 332 324 332 15 147 149 189 216 191 80 14 352 148 168 144 36 15 353 0 16 7 12 13 348 330 291 176 136 122
351 353 356 3 8 9 8 7 6 9 17 34 221 91 130 146 133 59 79 95 40 6 120 59 68 109 96 16 235 201 338 332 349 106 347 341 50 44 148 174 267 314 255 235 25 276 267 271 271 251 240 247 245 258 286 307 238 244 238 228 91 112 132 131 208 227 202 48 6 228 216 245 189 71 5 330 330 12 21 26 6 348 334 14 79 107 117
352 353 355 3 10 12 13 10 5 7 14 14 198 102 92 205 140 83 87 108 133 350 104 70 41 102 103 63 165 196 281 313 328 269 265 276 317 325 149 156 227 285 252 339 335 286 240 235 119 125 140 190 207 223 195 82 51 285 242 246 249 142 126 114 204 228 98 88 157 190 208 309 178 145 5 348 313 344 341 295 12 5 5 79 104 115 110
350 351 355 4 9 14 18 16 10 10 16 22 27 5 242 202 106 82 100 110 124 96 97 94 14 83 93 66 341 250 262 277 276 239 230 235 255 266 211 174 202 308 348 338 334 325 150 116 43 95 57 50 87 207 170 76 49 28 1 268 264 231 162 142 143 355 107 144 146 163 159 55 81 164 11 7 340 343 334 226 27 14 3 96 117 118 107
348 349 354 3 9 14 19 20 19 20 21 21 22 6 230 204 165 108 114 104 92 335 92 114 90 43 86 73 314 298 294 308 296 227 204 205 234 254 254 215 261 326 342 318 346 71 132 110 60 85 24 18 183 208 90 68 55 37 34 29 320 228 222 181 133 9 130 125 90 107 153 109 46 15 9 8 337 332 328 274 18 12 8 103 120 120 116
347 349 353 1 8 15 19 22 24 27 27 28 40 48 104 205 219 194 131 117 113 109 345 158 167 178 171 138 341 343 348 350 337 278 239 226 244 251 251 278 306 322 306 181 58 75 168 125 100 86 344 317 258 273 2 14 26 44 35 20 57 97 199 252 215 158 294 117 109 113 161 115 22 345 340 360 334 312 301 255 13 8 15 96 122 119 118
349 349 352 1 8 14 21 25 26 28 31 41 58 57 57 97 149 117 102 103 112 116 228 235 169 151 136 120 54 44 34 348 330 314 305 314 290 285 281 287 300 309 114 87 56 90 82 90 125 136 91 62 303 296 326 337 336 23 20 5 30 56 62 253 168 113 70 96 102 75 72 88 355 332 324 330 326 297 272 208 55 359 1 83 121 120 119
350 349 351 1 10 15 22 27 29 30 32 40 57 50 40 51 125 116 87 84 94 82 217 188 144 107 102 109 320 59 90 325 16 358 323 336 318 306 312 322 321 341 117 63 41 85 71 82 124 115 98 97 301 288 307 352 357 357 351 353 18 32 16 356 61 76 80 90 94 76 68 52 342 326 318 317 307 212 202 162 38 351 352 82 117 120 118
351 349 351 2 11 18 25 29 31 32 30 39 55 48 38 46 100 118 91 89 100 81 223 198 147 63 87 117 96 141 130 25 30 151 289 311 308 308 324 342 357 17 97 83 61 77 74 76 100 95 88 30 337 314 314 351 18 352 325 317 7 31 17 33 60 64 56 74 99 98 62 23 333 319 314 314 251 184 159 9 337 327 359 110 100 76 72
353 351 351 1 14 22 29 32 33 34 35 46 62 56 49 52 79 126 110 88 87 92 181 218 152 100 158 121 77 115 137 44 21 76 358 350 22 324 306 303 332 346 359 63 79 80 78 75 59 90 90 59 24 90 73 1 3 329 302 304 13 28 27 35 42 46 35 59 99 102 98 56 341 324 311 301 136 120 16 1 311 304 93 100 74 54 66
353 352 351 1 16 24 31 34 35 35 38 51 71 72 65 62 69 106 117 114 107 89 90 252 134 143 166 110 88 119 111 52 43 77 48 331 340 3 252 213 356 347 351 51 76 67 83 98 104 54 76 74 97 117 105 97 74 345 327 17 29 350 340 57 40 4 19 61 66 62 82 15 344 334 321 356 33 17 6 18 21 63 85 85 73 68 81
354 353 352 2 18 27 34 36 37 37 36 54 83 86 75 71 77 96 109 112 109 95 103 205 127 137 156 128 119 137 127 118 181 183 213 266 305 21 86 62 341 3 12 41 82 77 85 108 103 93 75 52 48 124 131 130 104 46 3 67 48 1 352 85 48 342 9 58 56 42 2 319 335 344 354 12 4 325 216 88 71 73 73 79 80 73 72
354 354 354 2 19 31 38 38 39 41 40 61 104 102 83 78 84 96 100 97 89 89 111 123 95 86 82 73 71 65 32 270 245 244 221 222 338 35 107 123 228 144 106 19 90 90 107 114 94 97 85 53 51 81 79 83 73 27 1 23 51 31 30 85 68 48 57 70 72 65 2 336 346 8 17 11 21 36 77 97 102 93 81 85 93 87 80
353 353 355 3 20 35 46 44 41 43 45 61 115 118 95 85 92 99 98 91 83 80 79 76 78 76 62 50 42 28 12 357 322 283 251 213 48 36 138 128 119 160 191 269 68 87 102 108 100 94 81 54 42 70 71 65 58 26 22 43 58 45 23 98 83 81 85 78 67 51 32 20 22 39 44 42 49 53 67 87 94 94 94 96 98 99 97
352 352 354 2 25 44 53 51 48 47 50 71 111 119 109 103 107 108 99 86 80 80 62 48 50 54 7 11 21 20 13 7 354 321 250 208 208 11 6 269 149 144 92 24 123 127 94 99 126 95 82 51 349 61 70 64 51 25 36 63 62 43 31 65 75 86 108 79 51 28 30 33 33 50 63 63 63 61 70 86 93 97 101 103 107 111 111
352 352 353 359 34 74 67 57 57 56 57 79 112 122 115 110 111 106 89 78 90 110 88 55 7 4 34 36 27 17 9 10 24 47 91 153 181 77 111 149 115 70 81 94 162 98 78 80 99 93 86 49 330 41 57 53 45 17 35 55 46 12 20 44 50 58 79 78 52 42 59 59 51 54 63 68 76 80 82 91 101 104 104 111 120 123 124
352 351 352 358 52 109 85 67 71 73 73 81 101 120 118 106 97 94 93 92 90 74 86 120 353 26 48 48 27 14 22 48 62 65 71 79 84 111 138 149 105 65 85 94 75 72 83 80 69 75 78 54 7 62 63 58 65 52 55 50 337 300 2 23 56 82 89 94 105 107 89 73 60 57 59 63 85 99 100 101 105 108 111 118 126 131 139
351 349 351 358 90 128 105 88 89 86 84 85 88 99 109 104 103 110 106 96 90 58 83 131 289 1 41 40 24 26 46 66 72 70 67 68 73 90 117 135 107 72 76 62 62 72 80 76 65 57 63 67 59 62 66 75 87 70 59 36 327 350 83 101 124 106 102 114 134 138 107 92 82 62 55 57 85 108 111 110 110 116 123 128 130 135 141
351 349 350 358 109 136 125 113 110 102 95 88 83 88 92 86 85 100 96 76 97 116 121 136 270 332 50 32 20 29 48 60 67 68 64 61 62 65 69 74 79 69 53 59 76 68 56 72 84 66 63 136 98 60 52 98 73 60 49 16 344 29 71 245 110 93 90 110 133 147 99 102 109 88 58 61 99 114 114 114 114 121 132 138 139 142 148
351 351 355 18 114 137 140 134 132 127 109 86 73 81 83 71 67 78 87 94 104 108 106 97 38 23 51 352 2 23 42 53 61 63 57 52 51 50 50 53 62 66 71 81 85 77 61 71 109 76 28 311 133 77 56 70 69 56 33 357 343 351 312 297 48 81 85 101 135 158 109 107 124 145 111 100 120 119 116 120 128 134 143 150 149 150 157
356 1 16 63 110 130 148 156 158 157 134 59 26 56 73 53 48 64 88 110 113 108 97 105 94 38 302 299 356 15 22 35 53 55 49 45 42 36 36 50 54 41 68 77 64 76 94 61 41 81 29 318 105 102 81 83 87 68 21 359 1 4 359 326 324 75 97 108 134 134 103 104 117 124 110 111 133 135 132 140 150 155 160 163 164 162 168
1 13 47 92 106 115 137 163 170 167 144 22 2 34 107 54 32 53 88 115 116 108 91 95 110 11 342 313 10 7 3 15 40 44 38 38 32 26 37 51 39 16 46 80 65 64 93 26 15 62 28 357 50 96 98 97 99 79 19 8 11 11 24 26 10 52 94 111 118 101 86 91 117 125 120 125 139 134 120 122 143 170 174 175 179 180 181
4 27 77 105 103 101 118 152 167 166 129 68 71 87 106 115 58 61 95 112 111 109 97 75 87 66 356 331 355 357 357 12 36 31 23 23 13 16 36 49 48 29 47 82 103 51 43 326 6 55 18 356 33 90 80 82 95 74 3 2 12 10 28 52 69 77 75 82 106 105 99 119 198 124 97 95 91 99 106 109 126 152 160 157 162 170 175
8 55 108 114 104 97 106 124 138 141 115 92 88 84 83 88 75 77 102 108 96 91 90 88 105 81 354 260 342 360 1 9 29 21 26 19 356 348 27 35 34 32 31 37 68 46 13 320 47 51 23 359 40 87 72 63 71 21 334 351 13 22 50 73 84 83 49 14 30 108 131 178 162 84 89 87 78 85 104 114 124 136 138 134 136 145 154
24 116 124 119 109 103 110 118 123 126 116 97 82 68 66 77 80 82 101 105 89 74 63 69 122 81 355 278 6 5 6 12 20 12 29 16 358 353 24 12 18 38 26 18 50 76 28 16 27 33 9 356 22 71 79 66 39 355 5 37 38 49 87 89 67 37 12 1 11 33 57 87 91 90 92 81 59 64 87 94 102 121 126 115 123 139 155
122 143 136 124 114 112 117 120 119 116 101 78 69 64 68 81 85 80 85 93 90 79 38 30 100 129 33 61 81 357 1 23 50 357 7 19 13 21 63 34 36 41 11 354 42 61 28 5 8 26 359 348 17 56 69 58 26 19 45 57 45 64 100 97 63 30 359 359 55 54 53 87 102 98 85 67 51 66 88 65 34 33 249 270 230 178 194
153 149 136 126 120 117 113 105 97 94 81 72 82 82 84 92 90 80 75 71 66 81 134 37 66 109 102 104 113 337 350 27 81 335 336 32 23 24 52 60 54 43 346 7 53 50 8 335 349 49 28 19 50 39 346 305 342 25 52 64 5 66 87 17 8 73 50 37 59 64 58 83 100 105 122 124 101 108 142 151 103 170 246 267 257 214 216
156 147 135 129 121 106 84 62 65 80 94 108 109 93 84 92 89 70 65 58 47 49 86 130 90 83 165 133 91 326 341 23 24 354 18 38 359 357 18 48 58 28 356 30 38 21 1 2 46 67 57 36 2 332 298 267 273 336 1 5 299 238 187 259 226 128 91 60 57 58 47 63 86 101 149 161 167 181 196 217 226 229 249 263 250 223 229
147 139 132 127 111 70 35 56 95 104 111 118 117 86 50 45 50 43 34 17 16 25 43 90 90 75 186 95 30 344 355 51 28 21 52 75 10 27 39 48 53 8 22 38 14 332 19 31 42 68 69 7 312 313 303 281 265 283 307 328 319 288 212 198 195 160 112 78 68 74 65 44 34 30 137 156 186 205 231 270 280 269 264 270 276 256 233
140 132 113 98 88 116 154 137 120 120 121 107 83 57 22 20 40 46 356 340 357 9 13 55 87 92 172 107 76 11 11 50 62 62 61 28 358 51 61 63 68 55 64 75 305 290 58 42 24 58 78 25 10 53 349 319 317 324 319 317 317 319 285 181 188 164 98 82 79 238 237 255 280 270 204 189 219 233 256 287 298 296 292 290 284 262 227
138 126 92 75 107 132 130 127 125 127 121 50 36 52 49 31 45 85 43 29 36 15 3 60 97 256 276 119 108 59 17 22 56 101 93 57 11 57 82 87 77 58 63 67 3 13 87 81 31 100 130 144 133 75 8 340 35 38 2 353 7 31 111 152 179 262 284 262 275 275 262 254 251 241 219 201 187 199 248 296 316 321 320 311 290 264 244
143 129 106 122 133 124 117 113 105 94 77 38 33 40 50 49 31 49 81 74 63 320 335 90 119 103 19 51 104 76 33 19 51 103 92 59 19 56 81 76 60 63 95 91 10 51 90 90 59 125 155 164 165 354 341 17 50 33 16 23 33 45 74 115 149 321 311 281 283 284 268 253 245 240 234 221 202 209 252 300 327 332 326 314 301 288 274
148 133 122 120 120 114 104 80 52 44 58 71 54 28 8 51 37 19 73 94 153 198 62 48 90 88 57 29 76 90 58 10 23 87 83 67 43 99 93 63 35 82 103 138 335 62 78 87 130 175 193 197 202 239 260 66 62 17 358 10 22 31 41 42 19 6 8 355 318 302 286 266 251 242 236 226 218 230 265 294 313 320 317 308 298 294 288
134 127 121 113 92 63 47 35 33 45 50 57 68 58 344 2 36 48 41 325 268 121 94 74 110 100 70 20 44 63 42 15 33 63 77 67 17 58 73 51 35 75 93 50 37 75 90 153 169 158 152 148 206 233 235 217 8 299 319 1 16 25 35 34 17 4 4 8 5 354 336 296 261 245 229 216 221 251 283 301 312 313 307 293 282 279 280
126 112 95 76 31 19 30 19 30 100 90 84 116 133 150 168 159 153 153 150 163 145 127 155 164 120 78 24 23 55 44 44 63 67 80 73 31 45 71 67 35 44 58 35 44 68 105 216 207 177 119 198 219 228 230 231 263 279 326 354 360 4 12 13 7 355 346 345 345 346 345 328 279 251 231 225 241 266 286 302 316 316 304 287 275 272 272
115 57 47 45 5 352 52 30 332 68 155 194 178 150 158 173 177 173 163 149 144 129 116 114 127 109 82 16 19 86 59 6 56 57 56 73 57 51 74 101 86 59 62 66 75 90 147 192 187 181 192 199 199 205 220 235 216 158 332 330 334 352 1 352 340 327 323 326 329 328 325 318 304 281 263 264 273 277 280 291 304 306 297 282 273 269 267
95 76 94 93 17 314 117 107 331 269 174 189 186 170 168 166 157 157 166 118 100 118 121 105 93 96 86 28 71 83 44 32 74 66 19 96 84 75 123 140 80 59 62 69 91 212 191 175 174 178 183 189 194 206 232 237 177 153 203 277 288 323 337 324 304 295 303 313 316 311 304 299 295 289 284 286 286 281 279 286 291 288 280 276 272 266 263
88 53 92 103 102 311 101 128 226 217 196 233 226 177 153 141 121 103 85 99 130 129 118 85 71 88 81 51 77 75 30 39 79 61 324 109 94 70 28 54 70 111 134 148 218 237 217 186 188 189 178 184 209 221 223 193 169 183 211 251 282 318 335 336 326 317 316 314 308 305 305 305 303 299 292 287 283 282 285 291 289 276 268 268 266 258 253
114 57 80 116 163 186 140 168 188 133 48 337 260 141 121 128 106 74 44 58 124 115 108 107 113 103 58 29 70 76 29 47 85 75 24 90 95 59 35 43 16 255 192 179 202 209 171 150 155 162 163 181 206 218 219 144 155 186 205 230 285 314 327 332 331 331 332 324 312 310 314 316 317 315 308 295 287 289 297 305 297 276 266 263 259 254 254
99 96 97 117 144 153 168 203 126 82 40 13 82 85 76 95 97 87 58 74 87 85 99 120 117 108 57 10 56 73 34 44 103 85 34 58 93 121 117 109 185 223 199 194 214 204 150 149 152 141 142 165 185 213 233 152 133 175 252 288 315 321 321 322 325 333 337 331 319 312 312 314 317 321 319 308 299 301 306 308 302 290 274 262 258 259 263
63 75 98 104 104 119 176 145 107 101 87 73 101 100 100 107 108 110 240 138 100 90 69 63 75 90 75 32 51 57 27 10 118 97 66 86 133 134 121 157 207 199 177 183 213 206 163 157 153 139 138 162 181 202 219 185 300 310 310 317 323 324 322 322 327 333 336 331 323 317 314 315 322 328 326 318 315 316 315 312 310 307 286 259 252 257 266
34 60 94 127 124 146 167 153 126 131 148 148 138 136 122 115 118 144 186 138 101 81 74 70 65 67 63 57 66 101 112 90 75 63 73 171 163 132 129 190 220 207 181 178 203 190 157 158 160 142 119 123 189 226 263 295 300 302 306 312 315 316 317 321 328 330 328 325 323 319 318 322 330 332 329 326 327 326 323 324 332 335 300 251 243 252 266
55 69 90 350 13 130 134 106 98 117 132 126 129 148 128 115 134 164 156 122 83 75 106 131 99 76 82 105 147 120 94 73 52 41 139 175 173 172 189 198 192 176 167 163 158 159 174 188 189 178 170 182 231 246 267 289 292 293 295 301 308 316 322 323 321 316 312 312 315 318 317 317 318 320 324 328 329 322 317 322 334 330 289 254 253 262 269